GW4332 Weather Reports


Display with metric or nautical units.
time (UTC)temp
F
wind
direction
speed
MPH
gust
MPH
rain 1hr
in
rain 24hr
in
rain mn
in
humidity
%
barometer
mb
20260505052030 48 60 7.0 13.0 0.00 0.00 0.00 88 1012.1
20260505051029 48 60 6.0 14.0 0.00 0.00 0.00 88 1012.1
20260505041030 49 63 4.0 11.0 0.00 0.00 0.00 87 1012.3
20260505040030 49 59 5.0 10.0 0.00 0.00 0.00 87 1012.3
20260505035030 49 63 6.0 12.0 0.00 0.00 0.00 87 1012.2
20260505034030 49 64 6.0 14.0 0.00 0.00 0.00 87 1012.2
20260505033030 49 62 4.0 10.0 0.00 0.00 0.00 87 1012.1
20260505032030 49 62 7.0 13.0 0.00 0.00 0.00 87 1012.2
20260505031029 49 55 6.0 11.0 0.00 0.00 0.00 87 1012.1
20260505030029 49 59 7.0 11.0 0.00 0.00 0.00 87 1012.1
20260505025029 49 64 7.0 14.0 0.00 0.00 0.00 87 1012.2
20260505024029 49 71 6.0 10.0 0.00 0.00 0.00 87 1012.3
20260505023029 49 61 7.0 13.0 0.00 0.00 0.00 87 1012.4
20260505022029 49 69 7.0 13.0 0.00 0.00 0.00 87 1012.4
20260505021029 50 52 6.0 11.0 0.00 0.00 0.00 87 1012.4
20260505020029 50 47 8.0 16.0 0.00 0.00 0.00 87 1012.5
20260505015029 50 55 9.0 14.0 0.00 0.00 0.00 87 1012.6
20260505014029 50 47 8.0 12.0 0.00 0.00 0.00 87 1012.6
20260505013029 50 43 7.0 13.0 0.00 0.00 0.00 87 1012.6
20260505012030 50 46 7.0 14.0 0.00 0.00 0.00 87 1012.7
20260505011030 50 40 7.0 13.0 0.00 0.00 0.00 87 1012.9
20260505010030 50 38 6.0 12.0 0.00 0.00 0.00 87 1013.0
20260505005030 50 40 7.0 13.0 0.00 0.00 0.00 87 1013.0
20260505004030 51 44 6.0 13.0 0.00 0.00 0.00 87 1013.1
20260505003029 51 30 8.0 14.0 0.00 0.00 0.00 87 1012.9
20260505002029 51 38 7.0 14.0 0.00 0.00 0.00 87 1013.0
20260505001029 51 26 7.0 14.0 0.00 0.00 0.00 87 1013.1
20260505000030 51 32 8.0 14.0 0.00 0.00 0.00 87 1013.1
20260504235030 51 25 7.0 13.0 0.00 0.00 0.00 87 1013.1
20260504234030 51 30 7.0 14.0 0.00 0.00 0.00 87 1013.3
20260504233030 51 43 7.0 12.0 0.00 0.00 0.00 87 1013.2
20260504232029 51 32 8.0 14.0 0.00 0.00 0.00 87 1013.3
20260504231029 51 34 8.0 13.0 0.00 0.00 0.00 86 1013.5
20260504230029 52 47 7.0 13.0 0.00 0.00 0.00 86 1013.5
20260504225029 52 34 9.0 14.0 0.00 0.00 0.00 86 1013.5
20260504224030 52 37 9.0 14.0 0.00 0.00 0.00 86 1013.5
20260504223030 52 37 9.0 14.0 0.00 0.00 0.00 86 1013.5
20260504222030 53 24 7.0 13.0 0.00 0.00 0.00 86 1013.7
20260504221030 53 15 8.0 13.0 0.00 0.00 0.00 86 1013.8
20260504220030 53 23 6.0 11.0 0.00 0.00 0.02 86 1013.8
20260504215030 53 40 7.0 11.0 0.00 0.00 0.02 86 1013.9
20260504214030 53 46 8.0 13.0 0.00 0.00 0.02 86 1013.9
20260504213030 53 42 8.0 12.0 0.00 0.00 0.02 86 1014.0
20260504212030 54 40 6.0 11.0 0.00 0.00 0.02 86 1014.0
20260504211030 54 32 9.0 15.0 0.00 0.00 0.02 86 1013.9
20260504210030 54 40 9.0 15.0 0.00 0.00 0.02 86 1014.1
20260504205030 54 47 7.0 12.0 0.00 0.00 0.02 86 1014.0
20260504204030 54 42 8.0 12.0 0.00 0.00 0.02 86 1013.9
20260504203030 55 30 7.0 13.0 0.00 0.00 0.02 86 1013.8
20260504202030 55 32 9.0 14.0 0.00 0.00 0.02 86 1013.8
20260504201030 55 39 9.0 14.0 0.00 0.00 0.02 86 1013.8
20260504200030 55 34 6.0 10.0 0.00 0.00 0.02 86 1013.7
20260504195030 55 43 9.0 15.0 0.00 0.00 0.02 86 1013.6
20260504194030 56 31 9.0 15.0 0.00 0.00 0.02 86 1013.5
20260504193030 56 14 7.0 13.0 0.00 0.00 0.02 86 1013.4
20260504192030 56 25 9.0 18.0 0.00 0.00 0.02 86 1013.4
20260504191030 56 18 9.0 18.0 0.00 0.00 0.02 85 1013.3
20260504190030 57 12 9.0 14.0 0.00 0.00 0.02 85 1013.3
20260504185029 57 12 10.0 17.0 0.00 0.00 0.02 85 1013.2
20260504184029 57 15 9.0 15.0 0.00 0.00 0.02 85 1013.4
20260504183030 58 3 11.0 17.0 0.00 0.00 0.02 85 1013.2
20260504182030 58 1 11.0 17.0 0.00 0.00 0.02 84 1013.1
20260504181030 58 7 11.0 16.0 0.00 0.00 0.02 83 1013.1
20260504180030 59 3 11.0 17.0 0.00 0.00 0.02 83 1013.1
20260504175030 59 359 10.0 17.0 0.00 0.00 0.02 83 1013.1
20260504174030 60 349 10.0 15.0 0.00 0.00 0.02 83 1013.1
20260504173030 60 5 9.0 14.0 0.00 0.00 0.02 83 1013.2
20260504172030 60 339 10.0 15.0 0.00 0.00 0.02 83 1013.0
20260504171029 60 4 9.0 16.0 0.00 0.00 0.02 83 1013.1
20260504151030 61 347 10.0 13.0 0.00 0.00 0.02 83 1013.0
20260504141030 62 355 8.0 13.0 0.00 0.00 0.02 83 1013.3
20260504081030 58 179 1.0 3.0 0.00 0.00 0.02 95 1013.0